DLH4PH EDDF-EGLL

Flight info

Callsign DLH4PH
Flight time 1h 13m
Altitude 36000
Route OBOKA3W/25C OBOKA Z29 TORNU DCT ABNED L980 LOGAN
Aircraft A320/M-SDE2E3FGIJ1LORWXYZ/HB1

Departure

Time 2026-05-06 13:23
Airport Frankfurt Main Airport (EDDF)

Arrival

Time 2026-05-06 14:37
Airport London Heathrow Airport (EGLL)
Time Latitude Longitude Altitude Speed Heading
2026-05-06 12:47 50.04851 8.58900 368 ft 0 kts 340°
2026-05-06 13:11 50.04836 8.58909 367 ft 3 kts 340°
2026-05-06 13:11 50.04810 8.58924 368 ft 3 kts 340°
2026-05-06 13:11 50.04785 8.58938 370 ft 3 kts 340°
2026-05-06 13:12 50.04776 8.58944 369 ft 0 kts 340°
2026-05-06 13:18 50.04778 8.58916 368 ft 5 kts 246°
2026-05-06 13:19 50.04749 8.58862 368 ft 7 kts 243°
2026-05-06 13:19 50.04723 8.58783 371 ft 9 kts 220°
2026-05-06 13:19 50.04662 8.58760 370 ft 9 kts 186°
2026-05-06 13:19 50.04641 8.58757 370 ft 0 kts 186°
2026-05-06 13:21 50.04617 8.58750 371 ft 10 kts 196°
2026-05-06 13:21 50.04533 8.58650 371 ft 17 kts 221°
2026-05-06 13:21 50.04466 8.58502 370 ft 10 kts 250°
2026-05-06 13:22 50.04465 8.58495 370 ft 0 kts 249°
2026-05-06 13:23 50.04358 8.58049 367 ft 83 kts 250°
2026-05-06 13:23 50.04079 8.56895 365 ft 142 kts 248°
2026-05-06 13:23 50.03711 8.55416 993 ft 144 kts 248°
2026-05-06 13:24 50.03360 8.53947 1717 ft 148 kts 248°
2026-05-06 13:24 50.02975 8.52337 2169 ft 170 kts 248°
2026-05-06 13:24 50.02499 8.50536 2558 ft 189 kts 238°
2026-05-06 13:24 50.01593 8.48974 3210 ft 199 kts 216°
2026-05-06 13:25 50.00332 8.48084 4096 ft 202 kts 194°
2026-05-06 13:25 49.98930 8.47741 4996 ft 205 kts 190°
2026-05-06 13:25 49.97515 8.47427 5895 ft 206 kts 191°
2026-05-06 13:25 49.96084 8.47083 6560 ft 210 kts 196°
2026-05-06 13:26 49.94614 8.46409 6956 ft 232 kts 199°
2026-05-06 13:26 49.93030 8.45634 7612 ft 244 kts 204°
2026-05-06 13:26 49.91565 8.44295 8483 ft 247 kts 220°
2026-05-06 13:26 49.90434 8.42323 9389 ft 250 kts 237°
2026-05-06 13:27 49.89530 8.39997 10246 ft 254 kts 239°
2026-05-06 13:27 49.88835 8.37469 11069 ft 258 kts 255°
2026-05-06 13:27 49.88615 8.34612 11570 ft 280 kts 271°
2026-05-06 13:27 49.88775 8.31516 11948 ft 305 kts 273°
2026-05-06 13:28 49.89067 8.28142 12489 ft 324 kts 282°
2026-05-06 13:28 49.89905 8.24857 12732 ft 332 kts 298°
2026-05-06 13:28 49.91260 8.21915 13082 ft 338 kts 305°
2026-05-06 13:28 49.92676 8.18994 13941 ft 340 kts 304°
2026-05-06 13:29 49.94149 8.16096 14666 ft 345 kts 310°
2026-05-06 13:29 49.95925 8.13559 15344 ft 351 kts 316°
2026-05-06 13:29 49.97793 8.11065 16020 ft 356 kts 316°
2026-05-06 13:29 49.99679 8.08546 16676 ft 360 kts 316°
2026-05-06 13:30 50.01596 8.05983 17348 ft 365 kts 317°
2026-05-06 13:30 50.03531 8.03392 18030 ft 370 kts 317°
2026-05-06 13:30 50.05493 8.00768 18625 ft 374 kts 317°
2026-05-06 13:30 50.07469 7.98121 19258 ft 376 kts 317°
2026-05-06 13:31 50.09454 7.95458 19664 ft 378 kts 316°
2026-05-06 13:31 50.11442 7.92789 19769 ft 377 kts 317°
2026-05-06 13:31 50.13427 7.90123 19789 ft 376 kts 316°
2026-05-06 13:31 50.15403 7.87462 19806 ft 376 kts 317°
2026-05-06 13:32 50.17381 7.84795 19801 ft 375 kts 316°
2026-05-06 13:32 50.19346 7.82137 19799 ft 374 kts 316°
2026-05-06 13:32 50.21313 7.79469 20054 ft 376 kts 315°
2026-05-06 13:32 50.23286 7.76787 20742 ft 377 kts 315°
2026-05-06 13:33 50.25364 7.74250 21371 ft 382 kts 323°
2026-05-06 13:33 50.27715 7.72246 21982 ft 389 kts 332°
2026-05-06 13:33 50.30212 7.70554 22565 ft 392 kts 332°
2026-05-06 13:33 50.32711 7.68857 23154 ft 395 kts 332°
2026-05-06 13:34 50.35232 7.67135 23671 ft 397 kts 332°
2026-05-06 13:34 50.37774 7.65392 24141 ft 400 kts 332°
2026-05-06 13:34 50.40338 7.63628 24591 ft 403 kts 333°
2026-05-06 13:34 50.42885 7.61869 25009 ft 407 kts 333°
2026-05-06 13:35 50.45488 7.60073 25458 ft 410 kts 333°
2026-05-06 13:35 50.48110 7.58269 25897 ft 413 kts 333°
2026-05-06 13:35 50.50748 7.56456 26330 ft 416 kts 333°
2026-05-06 13:35 50.53403 7.54628 26765 ft 418 kts 333°
2026-05-06 13:36 50.56039 7.52667 27194 ft 419 kts 327°
2026-05-06 13:36 50.58505 7.50220 27602 ft 420 kts 323°
2026-05-06 13:36 50.60962 7.47692 28013 ft 423 kts 323°
2026-05-06 13:36 50.63436 7.45147 28423 ft 426 kts 325°
2026-05-06 13:37 50.65930 7.42588 28812 ft 429 kts 327°
2026-05-06 13:37 50.68444 7.40014 29167 ft 433 kts 327°
2026-05-06 13:37 50.70961 7.37401 29607 ft 434 kts 324°
2026-05-06 13:37 50.73267 7.34343 29965 ft 436 kts 314°
2026-05-06 13:38 50.75255 7.30685 30268 ft 439 kts 304°
2026-05-06 13:38 50.76829 7.26632 30570 ft 440 kts 296°
2026-05-06 13:38 50.78223 7.22330 30912 ft 441 kts 296°
2026-05-06 13:38 50.79626 7.18020 31238 ft 442 kts 296°
2026-05-06 13:39 50.81036 7.13689 31582 ft 443 kts 296°
2026-05-06 13:39 50.82441 7.09369 32032 ft 441 kts 295°
2026-05-06 13:39 50.83842 7.05051 32494 ft 440 kts 295°
2026-05-06 13:39 50.85235 7.00744 32938 ft 439 kts 295°
2026-05-06 13:40 50.86619 6.96455 33360 ft 438 kts 295°
2026-05-06 13:40 50.88004 6.92159 33798 ft 437 kts 294°
2026-05-06 13:40 50.89382 6.87880 34171 ft 436 kts 294°
2026-05-06 13:40 50.90756 6.83603 34489 ft 436 kts 294°
2026-05-06 13:41 50.92131 6.79314 34791 ft 436 kts 294°
2026-05-06 13:41 50.93503 6.75029 35091 ft 436 kts 294°
2026-05-06 13:41 50.94873 6.70741 35367 ft 436 kts 294°
2026-05-06 13:41 50.96243 6.66436 35642 ft 437 kts 294°
2026-05-06 13:42 50.97610 6.62134 35823 ft 437 kts 294°
2026-05-06 13:42 51.00317 6.53621 35854 ft 429 kts 294°
2026-05-06 13:43 51.03001 6.45174 35847 ft 428 kts 294°
2026-05-06 13:43 51.05216 6.38151 35858 ft 428 kts 294°
2026-05-06 13:44 51.07877 6.29689 35862 ft 428 kts 294°
2026-05-06 13:44 51.10524 6.21216 35861 ft 428 kts 294°
2026-05-06 13:45 51.13164 6.12728 35861 ft 428 kts 293°
2026-05-06 13:45 51.15024 6.03818 35860 ft 424 kts 282°
2026-05-06 13:45 51.15760 5.99278 35859 ft 424 kts 282°
2026-05-06 13:46 51.17238 5.90179 35857 ft 424 kts 282°
2026-05-06 13:46 51.18918 5.81167 35862 ft 426 kts 290°
2026-05-06 13:47 51.21229 5.72466 35873 ft 426 kts 290°
2026-05-06 13:47 51.23530 5.63749 35879 ft 427 kts 290°
2026-05-06 13:48 51.25824 5.55022 35881 ft 426 kts 290°
2026-05-06 13:48 51.28088 5.46342 35879 ft 426 kts 290°
2026-05-06 13:49 51.30359 5.37603 35874 ft 425 kts 290°
2026-05-06 13:49 51.32629 5.28869 35874 ft 425 kts 290°
2026-05-06 13:50 51.34892 5.20126 35888 ft 426 kts 290°
2026-05-06 13:50 51.37142 5.11371 35887 ft 426 kts 290°
2026-05-06 13:51 51.39390 5.02609 35887 ft 426 kts 290°
2026-05-06 13:51 51.41632 4.93837 35888 ft 425 kts 290°
2026-05-06 13:52 51.43866 4.85055 35885 ft 425 kts 290°
2026-05-06 13:52 51.46086 4.76271 35894 ft 425 kts 290°
2026-05-06 13:53 51.48306 4.67478 35898 ft 425 kts 290°
2026-05-06 13:53 51.50519 4.58690 35901 ft 424 kts 290°
2026-05-06 13:54 51.52719 4.49904 35898 ft 424 kts 290°
2026-05-06 13:54 51.54917 4.41116 35898 ft 424 kts 290°
2026-05-06 13:55 51.57105 4.32321 35894 ft 424 kts 290°
2026-05-06 13:55 51.59283 4.23520 35891 ft 423 kts 290°
2026-05-06 13:56 51.61456 4.14714 35891 ft 423 kts 290°
2026-05-06 13:56 51.63617 4.05905 35884 ft 423 kts 289°
2026-05-06 13:57 51.65763 3.97144 35890 ft 423 kts 289°
2026-05-06 13:57 51.67912 3.88321 35895 ft 423 kts 289°
2026-05-06 13:58 51.70053 3.79483 35915 ft 423 kts 289°
2026-05-06 13:58 51.72183 3.70662 35916 ft 422 kts 289°
2026-05-06 13:59 51.74307 3.61854 35922 ft 421 kts 289°
2026-05-06 13:59 51.76420 3.53041 35931 ft 421 kts 289°
2026-05-06 14:00 51.78522 3.44231 35937 ft 420 kts 289°
2026-05-06 14:00 51.80617 3.35420 35939 ft 420 kts 289°
2026-05-06 14:01 51.82699 3.26623 35955 ft 419 kts 289°
2026-05-06 14:01 51.84392 3.17655 35945 ft 415 kts 276°
2026-05-06 14:02 51.84347 3.08397 35942 ft 412 kts 263°
2026-05-06 14:02 51.83738 2.99170 35941 ft 412 kts 263°
2026-05-06 14:03 51.83137 2.89952 35941 ft 413 kts 263°
2026-05-06 14:03 51.82538 2.80724 35946 ft 413 kts 263°
2026-05-06 14:04 51.81917 2.71497 35943 ft 413 kts 262°
2026-05-06 14:04 51.81597 2.66879 35558 ft 414 kts 262°
2026-05-06 14:04 51.81279 2.62271 35068 ft 411 kts 263°
2026-05-06 14:05 51.80963 2.57699 34633 ft 409 kts 262°
2026-05-06 14:05 51.80652 2.53202 34212 ft 406 kts 263°
2026-05-06 14:05 51.80340 2.48692 33757 ft 402 kts 263°
2026-05-06 14:05 51.80029 2.44230 33262 ft 398 kts 262°
2026-05-06 14:06 51.79718 2.39804 32778 ft 394 kts 263°
2026-05-06 14:06 51.79407 2.35436 32288 ft 390 kts 263°
2026-05-06 14:06 51.79096 2.31103 31817 ft 386 kts 262°
2026-05-06 14:06 51.78785 2.26823 31349 ft 382 kts 262°
2026-05-06 14:07 51.78476 2.22575 30880 ft 379 kts 262°
2026-05-06 14:07 51.78191 2.18369 30427 ft 375 kts 263°
2026-05-06 14:07 51.77941 2.14192 29975 ft 372 kts 263°
2026-05-06 14:07 51.77710 2.10051 29459 ft 369 kts 264°
2026-05-06 14:08 51.77485 2.05941 28944 ft 366 kts 264°
2026-05-06 14:08 51.77256 2.01867 28434 ft 363 kts 264°
2026-05-06 14:08 51.77022 1.97848 27948 ft 359 kts 263°
2026-05-06 14:08 51.76784 1.93838 27467 ft 357 kts 263°
2026-05-06 14:09 51.76543 1.89872 26988 ft 354 kts 263°
2026-05-06 14:09 51.76302 1.85935 26518 ft 351 kts 263°
2026-05-06 14:09 51.76061 1.82033 26062 ft 348 kts 263°
2026-05-06 14:09 51.75820 1.78161 25603 ft 346 kts 263°
2026-05-06 14:10 51.75583 1.74315 25150 ft 343 kts 263°
2026-05-06 14:10 51.75348 1.70526 24955 ft 333 kts 263°
2026-05-06 14:10 51.75121 1.66881 24854 ft 321 kts 263°
2026-05-06 14:10 51.74900 1.63365 24732 ft 309 kts 263°
2026-05-06 14:11 51.74681 1.59931 24322 ft 309 kts 263°
2026-05-06 14:11 51.74461 1.56518 23827 ft 311 kts 263°
2026-05-06 14:11 51.74235 1.53037 23295 ft 314 kts 263°
2026-05-06 14:11 51.74007 1.49516 22710 ft 316 kts 263°
2026-05-06 14:12 51.73777 1.45939 22138 ft 326 kts 263°
2026-05-06 14:12 51.73543 1.42296 21586 ft 328 kts 264°
2026-05-06 14:12 51.73307 1.38632 21109 ft 327 kts 264°
2026-05-06 14:12 51.73069 1.34986 20650 ft 327 kts 264°
2026-05-06 14:13 51.72831 1.31345 20185 ft 326 kts 264°
2026-05-06 14:13 51.72596 1.27717 19740 ft 325 kts 264°
2026-05-06 14:13 51.72360 1.24101 19301 ft 324 kts 264°
2026-05-06 14:13 51.72119 1.20487 18858 ft 324 kts 264°
2026-05-06 14:14 51.71876 1.16879 18429 ft 323 kts 264°
2026-05-06 14:14 51.71632 1.13281 17963 ft 323 kts 264°
2026-05-06 14:14 51.71389 1.09684 17479 ft 322 kts 264°
2026-05-06 14:14 51.71144 1.06093 16993 ft 322 kts 264°
2026-05-06 14:15 51.70898 1.02504 16522 ft 322 kts 264°
2026-05-06 14:15 51.70651 0.98914 16071 ft 321 kts 264°
2026-05-06 14:15 51.70406 0.95350 15663 ft 319 kts 264°
2026-05-06 14:15 51.70161 0.91801 15259 ft 318 kts 265°
2026-05-06 14:16 51.69916 0.88274 14859 ft 316 kts 264°
2026-05-06 14:16 51.69670 0.84764 14453 ft 315 kts 264°
2026-05-06 14:16 51.69425 0.81264 14078 ft 313 kts 264°
2026-05-06 14:16 51.69181 0.77790 13684 ft 312 kts 264°
2026-05-06 14:17 51.68939 0.74375 13259 ft 310 kts 265°
2026-05-06 14:17 51.68696 0.70929 12830 ft 308 kts 265°
2026-05-06 14:17 51.68459 0.67535 12403 ft 300 kts 264°
2026-05-06 14:17 51.68225 0.64263 11987 ft 288 kts 265°
2026-05-06 14:18 51.67998 0.61118 11578 ft 277 kts 265°
2026-05-06 14:18 51.67777 0.58096 11174 ft 267 kts 265°
2026-05-06 14:18 51.67564 0.55175 10777 ft 259 kts 265°
2026-05-06 14:18 51.67358 0.52335 10384 ft 251 kts 266°
2026-05-06 14:19 51.67156 0.49575 9991 ft 247 kts 266°
2026-05-06 14:19 51.66955 0.46822 9571 ft 248 kts 268°
2026-05-06 14:19 51.66757 0.44079 9138 ft 246 kts 266°
2026-05-06 14:19 51.66559 0.41343 8711 ft 248 kts 265°
2026-05-06 14:20 51.66356 0.38571 8305 ft 250 kts 265°
2026-05-06 14:20 51.66151 0.35791 7892 ft 250 kts 267°
2026-05-06 14:20 51.65944 0.33003 7495 ft 252 kts 264°
2026-05-06 14:20 51.65736 0.30204 7105 ft 252 kts 266°
2026-05-06 14:21 51.65531 0.27443 6996 ft 243 kts 266°
2026-05-06 14:21 51.65350 0.24732 6997 ft 243 kts 267°
2026-05-06 14:21 51.65180 0.22034 6995 ft 242 kts 266°
2026-05-06 14:21 51.65010 0.19330 6998 ft 243 kts 266°
2026-05-06 14:22 51.64841 0.16623 6999 ft 242 kts 266°
2026-05-06 14:22 51.64676 0.13926 7001 ft 242 kts 266°
2026-05-06 14:22 51.64521 0.11243 7003 ft 243 kts 268°
2026-05-06 14:22 51.64345 0.08543 7002 ft 243 kts 265°
2026-05-06 14:23 51.64175 0.05840 7001 ft 243 kts 266°
2026-05-06 14:23 51.64001 0.03127 7001 ft 243 kts 266°
2026-05-06 14:23 51.63812 0.00418 7001 ft 244 kts 266°
2026-05-06 14:23 51.63624 -0.02288 7036 ft 242 kts 267°
2026-05-06 14:24 51.63433 -0.04974 7035 ft 241 kts 268°
2026-05-06 14:24 51.63229 -0.07654 7041 ft 241 kts 264°
2026-05-06 14:24 51.63041 -0.10330 7046 ft 241 kts 266°
2026-05-06 14:24 51.62858 -0.12975 7050 ft 241 kts 265°
2026-05-06 14:25 51.62667 -0.15651 7049 ft 240 kts 267°
2026-05-06 14:25 51.62460 -0.18321 7053 ft 241 kts 268°
2026-05-06 14:25 51.62266 -0.20993 7055 ft 241 kts 266°
2026-05-06 14:25 51.62061 -0.23665 7058 ft 240 kts 266°
2026-05-06 14:26 51.61848 -0.26335 7055 ft 241 kts 266°
2026-05-06 14:26 51.61648 -0.29001 7055 ft 240 kts 266°
2026-05-06 14:26 51.61457 -0.31672 7002 ft 241 kts 266°
2026-05-06 14:26 51.61257 -0.34351 6999 ft 241 kts 265°
2026-05-06 14:27 51.61077 -0.37031 7002 ft 241 kts 266°
2026-05-06 14:27 51.60902 -0.39709 7002 ft 241 kts 265°
2026-05-06 14:27 51.60704 -0.42384 7004 ft 241 kts 265°
2026-05-06 14:27 51.60507 -0.45060 7000 ft 241 kts 266°
2026-05-06 14:28 51.60306 -0.47739 6997 ft 241 kts 266°
2026-05-06 14:28 51.60095 -0.50418 7002 ft 241 kts 266°
2026-05-06 14:28 51.59887 -0.53093 7003 ft 241 kts 263°
2026-05-06 14:28 51.59692 -0.55763 6940 ft 239 kts 267°
2026-05-06 14:29 51.59489 -0.58414 6587 ft 240 kts 265°
2026-05-06 14:29 51.59296 -0.61120 6042 ft 245 kts 265°
2026-05-06 14:29 51.59109 -0.63834 5539 ft 242 kts 266°
2026-05-06 14:29 51.58924 -0.66498 5068 ft 238 kts 265°
2026-05-06 14:30 51.58725 -0.69123 4605 ft 235 kts 264°
2026-05-06 14:30 51.58534 -0.71727 4126 ft 234 kts 266°
2026-05-06 14:30 51.58327 -0.74277 3663 ft 233 kts 263°
2026-05-06 14:30 51.57655 -0.76686 3194 ft 237 kts 230°
2026-05-06 14:31 51.56316 -0.78080 2995 ft 237 kts 195°
2026-05-06 14:31 51.54655 -0.78420 3009 ft 242 kts 183°
2026-05-06 14:31 51.52981 -0.78502 3001 ft 240 kts 181°
2026-05-06 14:31 51.51330 -0.78300 2983 ft 234 kts 165°
2026-05-06 14:32 51.49894 -0.77342 2859 ft 216 kts 145°
2026-05-06 14:32 51.48797 -0.75838 2730 ft 201 kts 127°
2026-05-06 14:32 51.48066 -0.74016 2594 ft 191 kts 110°
2026-05-06 14:32 51.47689 -0.71999 2544 ft 187 kts 95°
2026-05-06 14:33 51.47640 -0.69935 2505 ft 185 kts 84°
2026-05-06 14:33 51.47653 -0.67869 2447 ft 186 kts 85°
2026-05-06 14:33 51.47663 -0.65869 2266 ft 172 kts 86°
2026-05-06 14:33 51.47672 -0.64032 2046 ft 159 kts 86°
2026-05-06 14:34 51.47682 -0.62302 1862 ft 153 kts 86°
2026-05-06 14:34 51.47691 -0.60627 1646 ft 148 kts 84°
2026-05-06 14:34 51.47700 -0.58986 1438 ft 147 kts 85°
2026-05-06 14:34 51.47708 -0.57361 1240 ft 146 kts 84°
2026-05-06 14:35 51.47716 -0.55731 1045 ft 146 kts 85°
2026-05-06 14:35 51.47728 -0.54096 811 ft 147 kts 84°
2026-05-06 14:35 51.47740 -0.53005 708 ft 148 kts 83°
2026-05-06 14:35 51.47740 -0.50784 424 ft 150 kts 84°
2026-05-06 14:36 51.47752 -0.49710 351 ft 142 kts 83°
2026-05-06 14:36 51.47759 -0.48135 173 ft 139 kts 85°
2026-05-06 14:36 51.47759 -0.46642 102 ft 127 kts 84°
2026-05-06 14:36 51.47763 -0.45407 86 ft 89 kts 90°
2026-05-06 14:37 51.47759 -0.44665 89 ft 27 kts 96°
2026-05-06 14:37 51.47734 -0.44520 89 ft 11 kts 106°
2026-05-06 14:37 51.47689 -0.44345 88 ft 19 kts 115°
2026-05-06 14:37 51.47669 -0.44279 87 ft 0 kts 116°
2026-05-06 14:39 51.47647 -0.44241 87 ft 12 kts 148°
2026-05-06 14:39 51.47596 -0.44301 86 ft 8 kts 270°
2026-05-06 14:40 51.47601 -0.44390 86 ft 8 kts 274°
2026-05-06 14:40 51.47600 -0.44471 86 ft 7 kts 266°
2026-05-06 14:40 51.47598 -0.44526 86 ft 0 kts 266°
2026-05-06 14:43 51.47598 -0.44549 86 ft 6 kts 269°
2026-05-06 14:43 51.47596 -0.44608 91 ft 0 kts 263°
2026-05-06 14:43 51.47592 -0.44626 89 ft 8 kts 246°
2026-05-06 14:44 51.47530 -0.44650 86 ft 10 kts 164°
2026-05-06 14:44 51.47488 -0.44575 91 ft 9 kts 140°
2026-05-06 14:44 51.47431 -0.44559 86 ft 8 kts 179°
2026-05-06 14:45 51.47203 -0.44555 86 ft 19 kts 180°
2026-05-06 14:45 51.47079 -0.44556 86 ft 18 kts 179°
2026-05-06 14:45 51.46960 -0.44554 86 ft 17 kts 179°
2026-05-06 14:45 51.46857 -0.44554 86 ft 12 kts 180°
2026-05-06 14:46 51.46824 -0.44593 87 ft 5 kts 266°
2026-05-06 14:46 51.46821 -0.44649 88 ft 5 kts 264°
2026-05-06 14:46 51.46820 -0.44679 89 ft 0 kts 267°